Location: Chinna Viriv?da
(16.5281°N, 81.0493°E)
Time: 10:44:39
(UTC+00:00)

Hubble Space Telescope - Pass Details

Date: 14 April 2026
Orbit: 473 x 476 km, 28.5° (Epoch: 20 May)

Event Time Altitude Azimuth Distance (km) Brightness Sun altitude
Exits shadow 23:22:46 - 316° (NW) 1,791 3.2 -14.4°
Reaches altitude 10° 23:23:16 10° 320° (NW) 1,622 3.0 -14.3°
Maximum altitude 23:26:23 24° 16° (NNE) 996 2.5 -13.6°
Drops below altitude 10° 23:29:28 10° 73° (ENE) 1,621 4.7 -12.9°
Sets 23:31:56 0° 87° (E) 2,496 6.0 -12.3°
